Time,TemperatureF,DewpointF,PressureIn,WindDirection,WindDirectionDegrees,WindSpeedMPH,WindSpeedGustMPH,Humidity,HourlyPrecipIn,Conditions,Clouds,dailyrainin,SoftwareType,DateUTC
2013-08-30 00:11:00,62.5,58.0,30.02,West,278,0.0,1.0,85,0.00,,,0.00,weatherlink.com 1.10,2013-08-30 04:11:00,
2013-08-30 00:26:00,62.5,58.0,30.02,SW,229,0.0,1.0,85,0.00,,,0.00,weatherlink.com 1.10,2013-08-30 04:26:00,
2013-08-30 00:41:00,62.2,58.0,30.00,West,266,0.0,2.0,85,0.00,,,0.00,weatherlink.com 1.10,2013-08-30 04:41:00,
2013-08-30 00:56:00,62.1,58.0,30.00,West,259,0.0,1.0,85,0.00,,,0.00,weatherlink.com 1.10,2013-08-30 04:56:00,
2013-08-30 01:11:00,62.2,58.0,30.00,WSW,258,0.0,0.0,85,0.00,,,0.00,weatherlink.com 1.10,2013-08-30 05:11:00,
2013-08-30 01:26:00,62.2,58.0,30.00,West,259,0.0,0.0,85,0.00,,,0.00,weatherlink.com 1.10,2013-08-30 05:26:00,
2013-08-30 01:41:00,62.4,58.0,30.00,WSW,250,0.0,1.0,86,0.00,,,0.00,weatherlink.com 1.10,2013-08-30 05:41:00,
2013-08-30 01:56:00,62.3,58.0,30.00,WSW,250,0.0,0.0,85,0.00,,,0.00,weatherlink.com 1.10,2013-08-30 05:56:00,
2013-08-30 02:11:00,62.2,58.0,30.00,WSW,240,0.0,1.0,86,0.00,,,0.00,weatherlink.com 1.10,2013-08-30 06:11:00,
2013-08-30 02:26:00,62.4,58.0,29.99,WSW,237,0.0,3.0,86,0.00,,,0.00,weatherlink.com 1.10,2013-08-30 06:26:00,
2013-08-30 02:41:00,62.4,58.0,29.99,SW,221,1.0,2.0,86,0.00,,,0.00,weatherlink.com 1.10,2013-08-30 06:41:00,
2013-08-30 02:56:00,62.5,58.0,29.98,West,263,0.0,1.0,85,0.00,,,0.00,weatherlink.com 1.10,2013-08-30 06:56:00,
2013-08-30 03:11:00,62.4,58.0,29.97,SW,226,0.0,1.0,86,0.00,,,0.00,weatherlink.com 1.10,2013-08-30 07:11:00,
2013-08-30 03:26:00,62.3,58.0,29.97,SW,234,0.0,1.0,86,0.00,,,0.00,weatherlink.com 1.10,2013-08-30 07:26:00,
2013-08-30 03:41:00,62.2,58.0,29.97,SW,226,0.0,0.0,87,0.00,,,0.00,weatherlink.com 1.10,2013-08-30 07:41:00,
2013-08-30 03:56:00,62.2,58.0,29.96,WSW,237,0.0,1.0,87,0.00,,,0.00,weatherlink.com 1.10,2013-08-30 07:56:00,
2013-08-30 04:12:00,62.3,58.0,29.96,WSW,254,0.0,1.0,86,0.00,,,0.00,weatherlink.com 1.10,2013-08-30 08:12:00,
2013-08-30 04:27:00,62.2,58.0,29.96,SW,230,0.0,1.0,86,0.00,,,0.00,weatherlink.com 1.10,2013-08-30 08:27:00,
2013-08-30 04:42:00,62.3,58.0,29.96,SW,225,0.0,1.0,86,0.00,,,0.00,weatherlink.com 1.10,2013-08-30 08:42:00,
2013-08-30 04:57:00,62.3,58.0,29.96,WSW,254,0.0,1.0,86,0.00,,,0.00,weatherlink.com 1.10,2013-08-30 08:57:00,
2013-08-30 05:12:00,62.3,58.0,29.96,SW,229,0.0,1.0,86,0.00,,,0.00,weatherlink.com 1.10,2013-08-30 09:12:00,
2013-08-30 05:27:00,62.2,58.0,29.96,WSW,245,0.0,2.0,86,0.00,,,0.00,weatherlink.com 1.10,2013-08-30 09:27:00,
2013-08-30 05:42:00,62.2,58.0,29.96,SW,225,0.0,1.0,87,0.00,,,0.00,weatherlink.com 1.10,2013-08-30 09:42:00,
2013-08-30 05:57:00,62.2,58.0,29.97,SW,224,0.0,1.0,87,0.00,,,0.00,weatherlink.com 1.10,2013-08-30 09:57:00,
2013-08-30 06:12:00,62.2,58.0,29.98,SW,233,0.0,1.0,87,0.00,,,0.00,weatherlink.com 1.10,2013-08-30 10:12:00,
2013-08-30 06:27:00,62.3,58.0,29.97,WSW,240,0.0,3.0,87,0.00,,,0.00,weatherlink.com 1.10,2013-08-30 10:27:00,
2013-08-30 06:42:00,62.3,58.0,29.97,WSW,250,0.0,2.0,87,0.00,,,0.00,weatherlink.com 1.10,2013-08-30 10:42:00,
2013-08-30 06:57:00,62.5,59.0,29.97,West,269,0.0,2.0,87,0.00,,,0.00,weatherlink.com 1.10,2013-08-30 10:57:00,
2013-08-30 07:12:00,62.8,59.0,29.96,ENE,69,0.0,2.0,87,0.00,,,0.00,weatherlink.com 1.10,2013-08-30 11:12:00,
2013-08-30 07:27:00,62.9,59.0,29.97,West,279,0.0,2.0,86,0.00,,,0.00,weatherlink.com 1.10,2013-08-30 11:27:00,
2013-08-30 07:42:00,63.2,59.0,29.96,ENE,74,1.0,2.0,87,0.00,,,0.00,weatherlink.com 1.10,2013-08-30 11:42:00,
2013-08-30 07:57:00,63.2,59.0,29.96,West,265,1.0,4.0,86,0.00,,,0.00,weatherlink.com 1.10,2013-08-30 11:57:00,
2013-08-30 08:12:00,64.3,60.0,29.96,WSW,246,3.0,3.0,86,0.00,,,0.00,weatherlink.com 1.10,2013-08-30 12:12:00,
2013-08-30 08:27:00,64.5,60.0,29.96,SW,215,0.0,4.0,85,0.00,,,0.00,weatherlink.com 1.10,2013-08-30 12:27:00,
2013-08-30 08:42:00,64.9,60.0,29.95,West,278,0.0,2.0,85,0.00,,,0.00,weatherlink.com 1.10,2013-08-30 12:42:00,
2013-08-30 08:57:00,64.9,60.0,29.96,SW,218,0.0,4.0,85,0.00,,,0.00,weatherlink.com 1.10,2013-08-30 12:57:00,
2013-08-30 09:12:00,65.4,61.0,29.96,WNW,288,2.0,4.0,85,0.00,,,0.00,weatherlink.com 1.10,2013-08-30 13:12:00,
2013-08-30 09:27:00,66.3,61.0,29.95,NNE,14,0.0,3.0,84,0.00,,,0.00,weatherlink.com 1.10,2013-08-30 13:27:00,
2013-08-30 09:42:00,67.0,62.0,29.95,WSW,250,4.0,5.0,83,0.00,,,0.00,weatherlink.com 1.10,2013-08-30 13:42:00,
2013-08-30 09:57:00,67.8,63.0,29.95,WSW,239,0.0,4.0,83,0.00,,,0.00,weatherlink.com 1.10,2013-08-30 13:57:00,
2013-08-30 10:12:00,68.6,63.0,29.94,ESE,113,0.0,3.0,82,0.00,,,0.00,weatherlink.com 1.10,2013-08-30 14:12:00,
2013-08-30 10:27:00,69.0,63.0,29.94,WSW,246,2.0,5.0,82,0.00,,,0.00,weatherlink.com 1.10,2013-08-30 14:27:00,
2013-08-30 10:42:00,69.6,64.0,29.94,WSW,239,2.0,6.0,81,0.00,,,0.00,weatherlink.com 1.10,2013-08-30 14:42:00,
2013-08-30 10:57:00,71.3,65.0,29.93,SW,236,1.0,6.0,79,0.00,,,0.00,weatherlink.com 1.10,2013-08-30 14:57:00,
2013-08-30 11:12:00,72.7,65.0,29.92,WSW,255,2.0,4.0,76,0.00,,,0.00,weatherlink.com 1.10,2013-08-30 15:12:00,
2013-08-30 11:27:00,74.8,66.0,29.91,WSW,237,1.0,6.0,73,0.00,,,0.00,weatherlink.com 1.10,2013-08-30 15:27:00,
2013-08-30 11:42:00,75.5,66.0,29.91,WSW,244,3.0,6.0,72,0.00,,,0.00,weatherlink.com 1.10,2013-08-30 15:42:00,
2013-08-30 11:57:00,77.0,66.0,29.91,SSE,153,0.0,6.0,69,0.00,,,0.00,weatherlink.com 1.10,2013-08-30 15:57:00,
2013-08-30 12:12:00,78.4,67.0,29.90,South,172,1.0,8.0,67,0.00,,,0.00,weatherlink.com 1.10,2013-08-30 16:12:00,
2013-08-30 12:27:00,77.6,66.0,29.89,WSW,245,4.0,6.0,68,0.00,,,0.00,weatherlink.com 1.10,2013-08-30 16:27:00,
2013-08-30 12:43:00,79.1,66.0,29.88,East,94,0.0,6.0,65,0.00,,,0.00,weatherlink.com 1.10,2013-08-30 16:43:00,
2013-08-30 12:58:00,79.2,66.0,29.88,North,360,0.0,5.0,65,0.00,,,0.00,weatherlink.com 1.10,2013-08-30 16:58:00,
2013-08-30 13:28:00,78.8,66.0,29.87,SW,221,4.0,7.0,65,0.00,,,0.00,weatherlink.com 1.10,2013-08-30 17:28:00,
2013-08-30 13:43:00,79.8,67.0,29.86,West,260,0.0,6.0,65,0.00,,,0.00,weatherlink.com 1.10,2013-08-30 17:43:00,
2013-08-30 13:58:00,80.1,66.0,29.86,West,273,2.0,8.0,63,0.00,,,0.00,weatherlink.com 1.10,2013-08-30 17:58:00,
2013-08-30 14:13:00,80.9,67.0,29.85,West,277,1.0,10.0,62,0.00,,,0.00,weatherlink.com 1.10,2013-08-30 18:13:00,
2013-08-30 14:28:00,81.7,66.0,29.84,WSW,249,4.0,8.0,59,0.00,,,0.00,weatherlink.com 1.10,2013-08-30 18:28:00,
2013-08-30 14:43:00,81.5,67.0,29.84,SSW,203,0.0,6.0,61,0.00,,,0.00,weatherlink.com 1.10,2013-08-30 18:43:00,
2013-08-30 14:58:00,82.2,66.0,29.84,West,280,3.0,8.0,58,0.00,,,0.00,weatherlink.com 1.10,2013-08-30 18:58:00,
2013-08-30 15:13:00,82.3,66.0,29.83,SW,236,2.0,5.0,59,0.00,,,0.00,weatherlink.com 1.10,2013-08-30 19:13:00,
2013-08-30 15:28:00,82.9,67.0,29.83,WSW,257,1.0,7.0,58,0.00,,,0.00,weatherlink.com 1.10,2013-08-30 19:28:00,
2013-08-30 15:43:00,83.5,66.0,29.83,SSW,209,4.0,7.0,56,0.00,,,0.00,weatherlink.com 1.10,2013-08-30 19:43:00,
2013-08-30 15:58:00,83.7,66.0,29.83,WSW,248,2.0,7.0,56,0.00,,,0.00,weatherlink.com 1.10,2013-08-30 19:58:00,
2013-08-30 16:13:00,83.6,66.0,29.83,WSW,245,3.0,6.0,55,0.00,,,0.00,weatherlink.com 1.10,2013-08-30 20:13:00,
2013-08-30 16:28:00,84.2,66.0,29.82,WNW,302,1.0,5.0,55,0.00,,,0.00,weatherlink.com 1.10,2013-08-30 20:28:00,
2013-08-30 16:43:00,84.5,66.0,29.82,SSW,211,0.0,5.0,54,0.00,,,0.00,weatherlink.com 1.10,2013-08-30 20:43:00,
2013-08-30 16:58:00,84.6,67.0,29.82,East,101,2.0,5.0,55,0.00,,,0.00,weatherlink.com 1.10,2013-08-30 20:58:00,
2013-08-30 17:13:00,84.7,67.0,29.81,West,266,3.0,6.0,55,0.00,,,0.00,weatherlink.com 1.10,2013-08-30 21:13:00,
2013-08-30 17:28:00,84.4,67.0,29.81,SW,235,0.0,4.0,56,0.00,,,0.00,weatherlink.com 1.10,2013-08-30 21:28:00,
2013-08-30 17:43:00,84.6,67.0,29.81,West,279,1.0,3.0,55,0.00,,,0.00,weatherlink.com 1.10,2013-08-30 21:43:00,
2013-08-30 17:58:00,84.0,67.0,29.81,SW,221,1.0,4.0,56,0.00,,,0.00,weatherlink.com 1.10,2013-08-30 21:58:00,
2013-08-30 18:13:00,82.7,67.0,29.80,WSW,253,1.0,5.0,59,0.00,,,0.00,weatherlink.com 1.10,2013-08-30 22:13:00,
2013-08-30 18:28:00,81.4,67.0,29.81,NW,323,0.0,4.0,61,0.00,,,0.00,weatherlink.com 1.10,2013-08-30 22:28:00,
2013-08-30 18:43:00,80.5,67.0,29.81,WNW,287,1.0,4.0,64,0.00,,,0.00,weatherlink.com 1.10,2013-08-30 22:43:00,
2013-08-30 18:58:00,79.8,67.0,29.81,SSW,212,0.0,4.0,65,0.00,,,0.00,weatherlink.com 1.10,2013-08-30 22:58:00,
2013-08-30 19:13:00,78.8,67.0,29.82,West,273,1.0,3.0,68,0.00,,,0.00,weatherlink.com 1.10,2013-08-30 23:13:00,
2013-08-30 19:28:00,78.0,67.0,29.82,West,265,0.0,3.0,69,0.00,,,0.00,weatherlink.com 1.10,2013-08-30 23:28:00,
2013-08-30 19:43:00,77.5,67.0,29.82,West,277,1.0,3.0,70,0.00,,,0.00,weatherlink.com 1.10,2013-08-30 23:43:00,
2013-08-30 19:58:00,76.7,67.0,29.82,West,277,0.0,4.0,72,0.00,,,0.00,weatherlink.com 1.10,2013-08-30 23:58:00,
2013-08-30 20:13:00,76.1,67.0,29.82,WNW,283,0.0,3.0,74,0.00,,,0.00,weatherlink.com 1.10,2013-08-31 00:13:00,
2013-08-30 20:28:00,75.4,67.0,29.82,WNW,283,0.0,2.0,75,0.00,,,0.00,weatherlink.com 1.10,2013-08-31 00:28:00,
2013-08-30 20:43:00,75.1,67.0,29.82,West,264,0.0,2.0,76,0.00,,,0.00,weatherlink.com 1.10,2013-08-31 00:43:00,
2013-08-30 20:58:00,74.7,67.0,29.82,WSW,250,0.0,3.0,78,0.00,,,0.00,weatherlink.com 1.10,2013-08-31 00:58:00,
2013-08-30 21:13:00,74.1,67.0,29.82,West,261,0.0,1.0,79,0.00,,,0.00,weatherlink.com 1.10,2013-08-31 01:13:00,
2013-08-30 21:28:00,73.6,67.0,29.82,SSW,211,0.0,4.0,81,0.00,,,0.00,weatherlink.com 1.10,2013-08-31 01:28:00,
2013-08-30 21:43:00,73.3,68.0,29.81,West,278,0.0,3.0,82,0.00,,,0.00,weatherlink.com 1.10,2013-08-31 01:43:00,
2013-08-30 21:58:00,72.9,68.0,29.82,West,276,0.0,2.0,83,0.00,,,0.00,weatherlink.com 1.10,2013-08-31 01:58:00,
2013-08-30 22:13:00,72.6,67.0,29.82,NE,35,0.0,1.0,83,0.00,,,0.00,weatherlink.com 1.10,2013-08-31 02:13:00,
2013-08-30 22:28:00,72.4,68.0,29.82,WNW,301,0.0,4.0,85,0.00,,,0.00,weatherlink.com 1.10,2013-08-31 02:28:00,
2013-08-30 22:43:00,72.3,68.0,29.81,NW,316,0.0,1.0,85,0.00,,,0.00,weatherlink.com 1.10,2013-08-31 02:43:00,
2013-08-30 22:58:00,72.2,68.0,29.81,South,190,0.0,2.0,86,0.00,,,0.00,weatherlink.com 1.10,2013-08-31 02:58:00,
2013-08-30 23:13:00,72.2,68.0,29.81,WSW,254,0.0,1.0,86,0.00,,,0.00,weatherlink.com 1.10,2013-08-31 03:13:00,
2013-08-30 23:28:00,71.8,68.0,29.81,WSW,249,0.0,1.0,87,0.00,,,0.00,weatherlink.com 1.10,2013-08-31 03:28:00,
2013-08-30 23:43:00,71.6,68.0,29.81,SE,144,1.0,2.0,87,0.00,,,0.00,weatherlink.com 1.10,2013-08-31 03:43:00,
2013-08-30 23:58:00,71.5,68.0,29.81,WSW,237,1.0,3.0,88,0.00,,,0.00,weatherlink.com 1.10,2013-08-31 03:58:00,